Погода в Шаульдере

Казахстан     42°46′29″N   68°22′17″E
темп.,
°C
ветер,
м/с
пор.,
м/с
влажн.,
%
обл.,
%
осадки,
мм/ч
давл.,
гПа
погр.,
м
2 марта, вт
вт200:00+9ююз69460 0.0 1018130
03:00+8юз57480 0.0 101893
06:00+6зюз46570 0.0 1020107
09:00+5зюз36570 0.0 1022137
12:00+9з55382 0.0 1023550
15:00+10зсз553956 0.0 1023968
18:00+9сз444870 0.0 1023990
21:00+6ссз456299 0.0 1025456
3 марта, ср
ср300:00+5ссз466399 0.0 1025322
03:00+4ссз4758100 0.0 1025334
06:00+3ссв1158100 0.1 1026191
09:00+2юв2278100 0.1 1026194
12:00+4в2275100 0.1 1025496
15:00+8ссв435498 0.0 1023788
18:00+8св215398 0.0 10221049
21:00+6всв227098 0.1 1023247
4 марта, чт
чт400:00+5в238098 0.1 102247
03:00+4в338879 0.0 102148
06:00+4в338940 0.0 102138
09:00+5вюв348439 0.0 102080
12:00+10ююв356862 0.0 1019489
15:00+16ююз7113967 0.0 10151963
18:00+17юз7133673 0.0 10131903
21:00+9зсз11157492 0.1 10171127
5 марта, пт
пт500:00+4зсз9127396 0.1 10241006
03:00+4зсз6865100 0.0 10281093
06:00+4з4674100 0.1 1032744
09:00+4юз246785 0.1 1034557
12:00+6зюз224859 0.1 10331061
15:00+8всв11370 0.0 10291294
18:00+10всв34310 0.0 10261245
21:00+7всв36430 0.0 1025171
6 марта, сб
сб600:00+5св47611 0.0 1023163
03:00+3всв476998 0.0 1020176
06:00+3св585799 0.0 1017177
09:00+4ссв4747100 0.0 1015201
12:00+9ссв6941100 0.0 1013402
15:00+12св6733100 0.0 1013548
18:00+11всв3439100 0.0 1014485
21:00+8в3650100 0.0 1015222